Weather History for Pinedale, WY

Change the Weather History Date:

Friday, February 15, 2013

  Actual Average (KBPI) Record (KBPI)
Temperature  
Mean Temperature 21 °F 14 °F  
Max Temperature 32 °F 29 °F 49 °F (1996)
Min Temperature 10 °F 0 °F -33 °F (1995)
Degree Days  
Heating Degree Days 44 51  
Month to date heating degree days 787  
Since 1 July heating degree days 6900  
Cooling Degree Days 0 0  
Month to date cooling degree days 0  
Year to date cooling degree days 0  
Moisture  
Dew Point 14 °F    
Average Humidity 72    
Maximum Humidity 92    
Minimum Humidity 55    
Precipitation  
Precipitation 0.00 in 0.01 in 0.07 in (2004)
Month to date precipitation 0.18  
Year to date precipitation 0.49  
Sea Level Pressure  
Sea Level Pressure 30.29 in    
Wind  
Wind Speed 14 mph (WNW)    
Max Wind Speed 29 mph    
Max Gust Speed 37 mph    
Visibility 10 miles    
Events      
T = Trace of Precipitation, MM = Missing Value Source: NWS Daily Summary

Daily Weather History Graph

Daily Weather History Graph

Search for Another Location

Airport:

Trip Planner

Search our weather history database for the weather conditions in past years. The results will help you decide how hot, cold, wet, or windy it might be!

Date:

Astronomy

Feb. 15, 2013 Rise Set
Actual Time 7:15 AM MST 5:51 PM MST
Civil Twilight 6:46 AM MST 6:20 PM MST
Nautical Twilight 6:13 AM MST 6:53 PM MST
Astronomical Twilight 5:41 AM MST 7:26 PM MST
Moon 9:44 AM MST (2/15) No Moon Set
Length of Visible Light 11h 33m
Length of Day
10h 35m
Waxing Crescent, 31% of the Moon is Illuminated
Feb 15
Waxing Crescent
Feb 17
First Quarter
Feb 25
Full
Mar 4
Last Quarter
Mar 11
New

Hourly Weather History & Observations

Time (MST) Temp. Windchill Dew Point Humidity Pressure Visibility Wind Dir Wind Speed Gust Speed Precip Events Conditions
12:15 AM 12.2 °F -1.0 °F 10.4 °F 92% 30.24 in 10.0 mi WNW 10.4 mph - N/A   Clear
12:35 AM 12.2 °F -0.2 °F 10.4 °F 92% 30.25 in 10.0 mi WNW 9.2 mph - N/A   Clear
12:55 AM 14.0 °F 2.0 °F 10.4 °F 86% 30.24 in 10.0 mi West 9.2 mph - N/A   Clear
1:15 AM 14.0 °F 0.5 °F 10.4 °F 86% 30.24 in 10.0 mi WNW 11.5 mph - N/A   Clear
1:35 AM 14.0 °F 0.5 °F 10.4 °F 86% 30.25 in 10.0 mi WNW 11.5 mph - N/A   Clear
1:55 AM 14.0 °F 0.5 °F 10.4 °F 86% 30.25 in 10.0 mi WNW 11.5 mph - N/A   Clear
2:15 AM 14.0 °F 1.2 °F 10.4 °F 86% 30.26 in 10.0 mi WNW 10.4 mph - N/A   Clear
2:35 AM 14.0 °F 2.0 °F 10.4 °F 86% 30.26 in 10.0 mi WNW 9.2 mph - N/A   Clear
2:55 AM 15.8 °F 2.7 °F 12.2 °F 86% 30.26 in 10.0 mi WNW 11.5 mph - N/A   Clear
3:15 AM 19.4 °F 7.2 °F 14.0 °F 80% 30.25 in 10.0 mi WNW 11.5 mph - N/A   Clear
3:35 AM 17.6 °F 9.3 °F 12.2 °F 79% 30.26 in 10.0 mi NNW 5.8 mph - N/A   Clear
3:55 AM 15.8 °F 7.2 °F 12.2 °F 86% 30.26 in 10.0 mi NNW 5.8 mph - N/A   Clear
4:15 AM 15.8 °F 6.1 °F 12.2 °F 86% 30.26 in 10.0 mi WNW 6.9 mph - N/A   Scattered Clouds
4:35 AM 14.0 °F -0.2 °F 10.4 °F 86% 30.26 in 10.0 mi WNW 12.7 mph - N/A   Mostly Cloudy
4:55 AM 14.0 °F -0.2 °F 10.4 °F 86% 30.26 in 10.0 mi West 12.7 mph - N/A   Overcast
5:15 AM 14.0 °F 1.2 °F 10.4 °F 86% 30.27 in 10.0 mi West 10.4 mph - N/A   Overcast
5:35 AM 12.2 °F 6.1 °F 8.6 °F 85% 30.27 in 10.0 mi WNW 3.5 mph - N/A   Scattered Clouds
5:55 AM 12.2 °F - 10.4 °F 92% 30.29 in 10.0 mi Calm Calm - N/A   Clear
6:15 AM 12.2 °F 4.3 °F 8.6 °F 85% 30.29 in 10.0 mi WSW 4.6 mph - N/A   Clear
6:35 AM 14.0 °F 2.9 °F 10.4 °F 86% 30.29 in 10.0 mi West 8.1 mph - N/A   Clear
6:55 AM 12.2 °F 2.9 °F 8.6 °F 85% 30.29 in 10.0 mi West 5.8 mph - N/A   Clear
7:15 AM 12.2 °F 2.9 °F 8.6 °F 85% 30.30 in 10.0 mi West 5.8 mph - N/A   Clear
7:35 AM 10.4 °F -2.4 °F 6.8 °F 85% 30.31 in 10.0 mi West 9.2 mph - N/A   Clear
7:55 AM 12.2 °F -3.1 °F 8.6 °F 85% 30.32 in 10.0 mi WNW 13.8 mph - N/A   Clear
8:15 AM 15.8 °F 0.3 °F 10.4 °F 79% 30.32 in 10.0 mi WNW 16.1 mph - N/A   Scattered Clouds
8:35 AM 17.6 °F 2.7 °F 12.2 °F 79% 30.33 in 10.0 mi NW 16.1 mph - N/A   Scattered Clouds
8:55 AM 19.4 °F 6.0 °F 12.2 °F 74% 30.32 in 10.0 mi NW 13.8 mph - N/A   Scattered Clouds
9:15 AM 21.2 °F 7.3 °F 14.0 °F 74% 30.32 in 10.0 mi NW 16.1 mph - N/A   Scattered Clouds
9:35 AM 23.0 °F 8.0 °F 14.0 °F 68% 30.32 in 10.0 mi WNW 20.7 mph - N/A   Scattered Clouds
9:55 AM 24.8 °F 10.0 °F 14.0 °F 64% 30.32 in 10.0 mi WNW 21.9 mph 26.5 mph N/A   Mostly Cloudy
10:15 AM 26.6 °F 12.0 °F 15.8 °F 64% 30.32 in 10.0 mi WNW 23.0 mph - N/A   Mostly Cloudy
10:55 AM 26.6 °F 12.7 °F 15.8 °F 64% 30.32 in 10.0 mi WNW 20.7 mph 29.9 mph N/A   Mostly Cloudy
11:15 AM 26.6 °F 11.4 °F 15.8 °F 64% 30.32 in 10.0 mi WNW 25.3 mph 31.1 mph N/A   Scattered Clouds
11:35 AM 28.4 °F 14.4 °F 15.8 °F 59% 30.31 in 10.0 mi WNW 23.0 mph 31.1 mph N/A   Clear
12:15 PM 28.4 °F 14.4 °F 17.6 °F 64% 30.31 in 10.0 mi WNW 23.0 mph 32.2 mph N/A   Scattered Clouds
12:35 PM 30.2 °F 16.2 °F 17.6 °F 60% 30.31 in 10.0 mi WNW 25.3 mph 32.2 mph N/A   Scattered Clouds
12:55 PM 30.2 °F 15.4 °F 17.6 °F 60% 30.30 in 10.0 mi WNW 28.8 mph 36.8 mph N/A   Scattered Clouds
1:15 PM 30.2 °F 15.7 °F 17.6 °F 60% 30.29 in 10.0 mi West 27.6 mph 32.2 mph N/A   Mostly Cloudy
1:35 PM 30.2 °F 16.5 °F 17.6 °F 60% 30.30 in 10.0 mi WNW 24.2 mph 35.7 mph N/A   Mostly Cloudy
1:55 PM 32.0 °F 18.6 °F 17.6 °F 55% 30.30 in 10.0 mi WNW 25.3 mph 32.2 mph N/A   Scattered Clouds
2:15 PM 32.0 °F 18.4 °F 17.6 °F 55% 30.30 in 10.0 mi West 26.5 mph 32.2 mph N/A   Scattered Clouds
2:35 PM 32.0 °F 19.5 °F 17.6 °F 55% 30.30 in 10.0 mi WNW 21.9 mph 28.8 mph N/A   Mostly Cloudy
2:55 PM 32.0 °F 20.1 °F 17.6 °F 55% 30.30 in 10.0 mi West 19.6 mph - N/A   Mostly Cloudy
3:15 PM 32.0 °F 20.1 °F 17.6 °F 55% 30.30 in 10.0 mi WNW 19.6 mph 31.1 mph N/A   Scattered Clouds
3:35 PM 32.0 °F 20.1 °F 17.6 °F 55% 30.30 in 10.0 mi WNW 19.6 mph 27.6 mph N/A   Scattered Clouds
3:55 PM 32.0 °F 19.8 °F 17.6 °F 55% 30.30 in 10.0 mi WNW 20.7 mph 25.3 mph N/A   Clear
4:15 PM 32.0 °F 20.1 °F 17.6 °F 55% 30.30 in 10.0 mi WNW 19.6 mph 25.3 mph N/A   Scattered Clouds
4:35 PM 32.0 °F 20.1 °F 17.6 °F 55% 30.30 in 10.0 mi WNW 19.6 mph - N/A   Mostly Cloudy
4:55 PM 30.2 °F 18.5 °F 17.6 °F 60% 30.30 in 10.0 mi WNW 17.3 mph 21.9 mph N/A   Mostly Cloudy
5:15 PM 30.2 °F 20.8 °F 17.6 °F 60% 30.30 in 10.0 mi West 11.5 mph - N/A   Mostly Cloudy
5:35 PM 28.4 °F 18.0 °F 17.6 °F 64% 30.29 in 10.0 mi West 12.7 mph 16.1 mph N/A   Mostly Cloudy
5:55 PM 28.4 °F 15.4 °F 17.6 °F 64% 30.29 in 10.0 mi WNW 19.6 mph 23.0 mph N/A   Mostly Cloudy
6:15 PM 28.4 °F 16.2 °F 17.6 °F 64% 30.29 in 10.0 mi WNW 17.3 mph 24.2 mph N/A   Scattered Clouds
6:35 PM 26.6 °F 13.4 °F 17.6 °F 69% 30.29 in 10.0 mi WNW 18.4 mph 23.0 mph N/A   Clear
6:55 PM 26.6 °F 12.4 °F 15.8 °F 64% 30.29 in 10.0 mi WNW 21.9 mph 27.6 mph N/A   Clear
7:15 PM 26.6 °F 12.0 °F 17.6 °F 69% 30.29 in 10.0 mi WNW 23.0 mph 28.8 mph N/A   Clear
7:35 PM 26.6 °F 12.7 °F 15.8 °F 64% 30.29 in 10.0 mi NW 20.7 mph - N/A   Clear
7:55 PM 26.6 °F 12.4 °F 15.8 °F 64% 30.29 in 10.0 mi NW 21.9 mph - N/A   Clear
8:15 PM 24.8 °F 11.5 °F 15.8 °F 69% 30.29 in 10.0 mi NW 17.3 mph - N/A   Clear
8:35 PM 24.8 °F 10.3 °F 15.8 °F 69% 30.29 in 10.0 mi WNW 20.7 mph - N/A   Clear
8:55 PM 24.8 °F 10.3 °F 15.8 °F 69% 30.29 in 10.0 mi WNW 20.7 mph - N/A   Clear
9:15 PM 24.8 °F 10.0 °F 15.8 °F 69% 30.29 in 10.0 mi WNW 21.9 mph - N/A   Clear
9:35 PM 26.6 °F 13.1 °F 15.8 °F 64% 30.29 in 10.0 mi NW 19.6 mph - N/A   Clear
9:55 PM 24.8 °F 14.6 °F 15.8 °F 69% 30.30 in 10.0 mi West 10.4 mph - N/A   Clear
10:15 PM 24.8 °F 13.4 °F 15.8 °F 69% 30.30 in 10.0 mi West 12.7 mph - N/A   Clear
10:35 PM 26.6 °F 13.4 °F 15.8 °F 64% 30.30 in 10.0 mi WNW 18.4 mph 21.9 mph N/A   Clear
10:55 PM 23.0 °F 10.6 °F 15.8 °F 74% 30.31 in 10.0 mi NNW 13.8 mph - N/A   Scattered Clouds
11:15 PM 23.0 °F 8.7 °F 17.6 °F 80% 30.31 in 10.0 mi WNW 18.4 mph 24.2 mph N/A   Scattered Clouds
11:35 PM 23.0 °F 8.7 °F 15.8 °F 74% 30.32 in 10.0 mi West 18.4 mph 21.9 mph N/A   Clear
11:55 PM 23.0 °F 10.6 °F 17.6 °F 80% 30.32 in 10.0 mi WNW 13.8 mph - N/A   Clear